Weather History for Pendleton, OR

Change the Weather History Date:

Wednesday, October 2, 2013

  Actual Average Record
Temperature  
Mean Temperature 46 °F 57 °F  
Max Temperature 56 °F 71 °F 91 °F (1932)
Min Temperature 36 °F 44 °F 29 °F (1999)
Degree Days  
Heating Degree Days 19 8  
Month to date heating degree days 35 16  
Since 1 July heating degree days 141 150  
Cooling Degree Days 0 0  
Month to date cooling degree days 0 0  
Year to date cooling degree days 831 634  
Moisture  
Dew Point 36 °F    
Average Humidity 68    
Maximum Humidity 85    
Minimum Humidity 50    
Precipitation  
Precipitation 0.00 in 0.02 in 0.63 in (1957)
Month to date precipitation 0.07 0.05  
Year to date precipitation 7.56 8.71  
Snow  
Snow 0.00 in 0.00 in 0.00 in (2002)
Month to date snowfall 0.0 0.0  
Year to date snowfall 0.2 7.7  
Since 1 July snowfall T 0.0  
Snow Depth 0.00 in    
Sea Level Pressure  
Sea Level Pressure 30.08 in    
Wind  
Wind Speed 7 mph (SW)    
Max Wind Speed 13 mph    
Max Gust Speed 17 mph    
Visibility 10 miles    
Events      
T = Trace of Precipitation, MM = Missing Value Source: NWS Daily Summary

Daily Weather History Graph

Daily Weather History Graph

Search for Another Location

Airport:

Trip Planner

Search our weather history database for the weather conditions in past years. The results will help you decide how hot, cold, wet, or windy it might be!

Date:

Astronomy

Oct. 02, 2013 Rise Set
Actual Time 6:55 AM PDT 6:32 PM PDT
Civil Twilight 6:25 AM PDT 7:02 PM PDT
Nautical Twilight 5:51 AM PDT 7:36 PM PDT
Astronomical Twilight 5:16 AM PDT 8:11 PM PDT
Moon 4:27 AM PDT (10/2) 5:15 PM PDT (10/2)
Length of Visible Light 12h 36m
Length of Day
11h 37m
Waning Crescent, 6% of the Moon is Illuminated
Oct 2
Waning Crescent
Oct 4
New
Oct 11
First Quarter
Oct 18
Full
Oct 26
Last Quarter

Hourly Weather History & Observations

Time (PDT) Temp. Windchill Dew Point Humidity Pressure Visibility Wind Dir Wind Speed Gust Speed Precip Events Conditions
12:53 AM 39.9 °F 34.5 °F 35.1 °F 83% 30.17 in - South 8.1 mph - N/A   Clear
1:53 AM 39.9 °F 33.9 °F 34.0 °F 79% 30.18 in - South 9.2 mph - N/A   Clear
2:53 AM 37.9 °F 32.1 °F 34.0 °F 86% 30.17 in - South 8.1 mph - N/A   Clear
3:53 AM 37.0 °F 31.0 °F 34.0 °F 89% 30.15 in - South 8.1 mph - N/A   Clear
4:53 AM 37.0 °F 31.6 °F 33.1 °F 86% 30.14 in - SSE 6.9 mph - N/A   Clear
5:53 AM 37.0 °F 32.4 °F 33.1 °F 86% 30.13 in - South 5.8 mph - N/A   Clear
6:53 AM 37.0 °F 30.4 °F 33.1 °F 86% 30.12 in - SSE 9.2 mph - N/A   Clear
7:53 AM 39.0 °F 33.4 °F 35.1 °F 86% 30.11 in 10.0 mi SE 8.1 mph - N/A   Clear
8:53 AM 43.0 °F 38.2 °F 36.0 °F 76% 30.11 in 10.0 mi SSE 8.1 mph - N/A   Clear
9:53 AM 48.0 °F - 37.0 °F 66% 30.10 in 10.0 mi SSE 4.6 mph - N/A   Clear
10:53 AM 51.1 °F - 35.1 °F 54% 30.08 in 10.0 mi West 3.5 mph - N/A   Clear
11:53 AM 53.1 °F - 35.1 °F 50% 30.06 in 10.0 mi Calm Calm - N/A   Clear
12:53 PM 54.0 °F - 39.0 °F 57% 30.04 in 10.0 mi NW 12.7 mph - N/A   Scattered Clouds
1:53 PM 55.0 °F - 37.9 °F 53% 30.02 in 10.0 mi NW 10.4 mph - N/A   Partly Cloudy
2:53 PM 54.0 °F - 37.0 °F 53% 30.01 in 10.0 mi NNW 8.1 mph - N/A   Scattered Clouds
3:53 PM 54.0 °F - 36.0 °F 51% 30.01 in 10.0 mi North 6.9 mph - N/A   Clear
4:53 PM 54.0 °F - 36.0 °F 51% 30.01 in 10.0 mi North 4.6 mph - N/A   Clear
5:53 PM 52.0 °F - 36.0 °F 54% 30.02 in 10.0 mi NW 5.8 mph - N/A   Clear
6:53 PM 46.9 °F - 37.9 °F 71% 30.03 in 10.0 mi WNW 6.9 mph - N/A   Clear
7:53 PM 46.0 °F 44.8 °F 37.9 °F 73% 30.03 in 10.0 mi WNW 3.5 mph - N/A   Scattered Clouds
8:53 PM 46.0 °F - 37.0 °F 71% 30.04 in 10.0 mi Calm Calm - N/A   Mostly Cloudy
9:53 PM 44.1 °F 41.5 °F 36.0 °F 73% 30.05 in 10.0 mi SE 4.6 mph - N/A   Mostly Cloudy
10:53 PM 44.1 °F 40.1 °F 37.9 °F 79% 30.05 in 10.0 mi WSW 6.9 mph - N/A   Mostly Cloudy
11:53 PM 44.1 °F 38.1 °F 39.0 °F 82% 30.06 in 10.0 mi West 11.5 mph - N/A   Mostly Cloudy